Volver al catálogo

STARLINK-6084

ActivoComunicacionesVLEO
NORAD 56111·PAYLOAD·🇺🇸 United States

Lanzado Mar 29, 2023 desde Cape Canaveral Space Force Station

Loading…

Próximos Pases (próximas 24 horas)

TLE

ActualizadoSource: CelesTrak SupGP

Época: Sep 14, 2026, 22:24 UTC

1 56111C 23046U   26257.93381944 -.00024667  00000+0 -89347-3 0  2579
2 56111  43.0014 173.2659 0001539 262.1983 270.3490 15.27589817    19

Sigue STARLINK-6084 en tiempo real con AllMySat

Download on the App Store